Regional Weather Roundup
Issued by NWS

Home | Current Version | Previous Version | Text Only | Print | Product List | Glossary On
Versions: 1 2 3 4 5 6 7 8 9 10 11 12 13 14 15 16 17 18 19 20 21 22 23 24 25 26 27 28 29 30 31 32 33 34 35 36 37 38 39 40 41 42 43 44 45 46 47 48 49 50
000
ASUS44 KLIX 260910
RWRLA
LOUISIANA WEATHER ROUNDUP
NATIONAL WEATHER SERVICE NEW ORLEANS LA
300 AM CST MON JAN 26 2015

NOTE: "FAIR" INDICATES FEW OR NO CLOUDS BELOW 12,000 FEET WITH NO
      SIGNIFICANT WEATHER AND/OR OBSTRUCTIONS TO VISIBILITY.
      SKY/WX - SKY CONDITION AND SIGNIFICANT WEATHER.
      TMP - AIR TEMPERATURE.    DP   - DEWPOINT TEMPERATURE.
      RH  - RELATIVE HUMIDITY.  PRES - PRESSURE.
      HX  - HEAT INDEX.         WCI  - WIND CHILL INDEX.

*  THESE STATIONS ARE NOT NWS OR FAA STATIONS AND ARE NOT UNDER
   NWS QUALITY CONTROL.

LAZ040-048-061>063-065-066-069-261000-
SOUTHEAST LOUISIANA

CITY           SKY/WX    TMP DP  RH WIND       PRES   REMARKS
N.O. AUDUBON     N/A     53  36  53 MISG        N/A
N.O. INTL ARPT CLEAR     51  35  54 NW10      30.04R
N.O. LAKEFRONT CLEAR     55  39  54 NW16      30.04R
N.O. DOWNTOWN* FAIR      54  34  47 NW3       30.04S
SLIDELL        CLEAR     49  34  56 CALM      30.01S
BATON ROUGE    CLEAR     52  31  44 NW13G23   30.05R
BOOTHVILLE     CLEAR     51  43  74 W9        30.05R
BELLE CHASSE   CLEAR     53  33  46 NW5       30.03S
BOGALUSA*        N/A     42  36  79 W3        30.04R
GALLIANO*      SUNNY     47  40  76 MISG      30.05F
NEW ROADS*     FAIR      50  33  51 NW13G22   30.07S
GONZALES*      FAIR      51  33  50 NW8       30.05R
HAMMOND*       CLEAR     50  32  50 NW10      30.04S
HOUMA*         CLEAR     50  35  55 NW6       30.06R
PORT FOURCHON* SUNNY     55  41  58 NW9       30.09S

$$

LAZ041-044-053-054-261000-
SOUTHWEST LOUISIANA

CITY           SKY/WX    TMP DP  RH WIND       PRES   REMARKS
LAKE CHARLES   CLEAR     52  30  43 NW16G23   30.11S
LAFAYETTE      CLEAR     51  32  48 N16       30.09R
PATTERSON      CLEAR     50  32  50 N6        30.07S
SALT POINT       N/A     51  36  56 VRB6      30.06S
NEW IBERIA     CLEAR     48  34  58 NW9       30.08R
CHENAULT AIRPK CLEAR     50  30  47 NW12      30.12S

$$

LAZ027-028-261000-
CENTRAL LOUISIANA

CITY           SKY/WX    TMP DP  RH WIND       PRES   REMARKS
FORT POLK      CLEAR     47  31  53 N8        30.11S
ALEXANDRIA INT CLEAR     45  33  63 NW7       30.10R
ALEXANDRIA     CLEAR     47  32  56 VRB6      30.10R

$$

LAZ001-002-261000-
NORTHWEST LOUISIANA

CITY           SKY/WX    TMP DP  RH WIND       PRES   REMARKS
SHREVEPORT     CLEAR     44  32  62 NW9       30.13R
BARKSDALE AFB  CLEAR     44  32  62 NW12      30.14R
DTN SHREVEPORT CLEAR     45  31  58 NW8       30.14R

$$

LAZ014-016-261000-
NORTHEAST LOUISIANA

CITY           SKY/WX    TMP DP  RH WIND       PRES   REMARKS
MONROE         CLEAR     44  34  67 NW9       30.10R
TALLULAH       CLEAR     45  33  63 NW6       30.07R

$$




USA.gov is the U.S. government's official web portal to all federal, state and local government web resources and services.